• In United Kingdom
  • List of Countries
  • For 7 days
  • Water Temperature
  • Satellite Maps
  • Weather Map
  • Weather Widgets
  • user-avatar
    Login

    Hourly Weather Mbandaka

    Today, 20 September, Wednesday

    Time Temperature Precipitation Wind Pressure Humidity
    00:00 +21°C° 0 mm 0 mps 732 mmHg 98%
    01:00 +21°C° 0 mm 0 mps 732 mmHg 98%
    02:00 +21°C° 0 mm 0 mps 732 mmHg 98%
    03:00 +21°C° 0 mm 0 mps 732 mmHg 98%
    04:00 +20°C° 0 mm 0 mps 732 mmHg 98%
    05:00 +21°C° 0 mm 0 mps 732 mmHg 96%
    06:00 +22°C° 0 mm 0 mps 732 mmHg 95%
    07:00 +22°C° 0 mm 0 mps 733 mmHg 94%
    08:00 +26°C° 0 mm 0 mps 733 mmHg 79%
    09:00 +29°C° 0 mm 0 mps 733 mmHg 64%
    10:00 +33°C° 0 mm 0 mps 734 mmHg 49%
    11:00 +34°C° 0 mm 0 mps 733 mmHg 44%
    12:00 +36°C° 0 mm 0 mps 732 mmHg 40%
    13:00 +37°C° 0 mm 0 mps 731 mmHg 35%
    14:00 +36°C° 0 mm 0 mps 730 mmHg 39%
    15:00 +34°C° 0 mm 0 mps 730 mmHg 43%
    16:00 +32°C° 0 mm 0 mps 729 mmHg 47%
    17:00 +30°C° 0 mm 0 mps 729 mmHg 53%
    18:00 +29°C° 0 mm 0 mps 730 mmHg 58%
    19:00 +27°C° 0 mm 0 mps 730 mmHg 63%
    20:00 +26°C° 0 mm 0 mps 730 mmHg 66%
    21:00 +25°C° 0 mm 0 mps 731 mmHg 68%
    22:00 +25°C° 0 mm 0 mps 731 mmHg 71%
    23:00 +24°C° 0.2 mm 0 mps 731 mmHg 75%

    Tomorrow, 21 September, Thursday

    Time Temperature Precipitation Wind Pressure Humidity
    00:00 +24°C° 0.2 mm 0 mps 731 mmHg 79%
    01:00 +23°C° 0.2 mm 0 mps 730 mmHg 83%
    02:00 +23°C° 0 mm 0 mps 730 mmHg 85%
    03:00 +23°C° 0 mm 0 mps 730 mmHg 87%
    04:00 +22°C° 0 mm 0 mps 730 mmHg 89%
    05:00 +23°C° 0.1 mm 0 mps 731 mmHg 87%
    06:00 +24°C° 0.1 mm 0 mps 731 mmHg 86%
    07:00 +24°C° 0.1 mm 0 mps 732 mmHg 84%
    08:00 +28°C° 0 mm 0 mps 732 mmHg 72%
    09:00 +31°C° 0 mm 0 mps 732 mmHg 60%
    10:00 +34°C° 0 mm 0 mps 733 mmHg 48%
    11:00 +35°C° 0 mm 0 mps 732 mmHg 43%
    12:00 +37°C° 0 mm 0 mps 730 mmHg 38%
    13:00 +41°C° 0 mm 1 mps 729 mmHg 34%
    14:00 +40°C° 0 mm 1 mps 729 mmHg 36%
    15:00 +36°C° 0 mm 0 mps 728 mmHg 39%
    16:00 +34°C° 0 mm 0 mps 728 mmHg 41%
    17:00 +32°C° 0 mm 0 mps 728 mmHg 47%
    18:00 +30°C° 0 mm 0 mps 729 mmHg 53%
    19:00 +28°C° 0 mm 0 mps 729 mmHg 59%
    20:00 +27°C° 0 mm 0 mps 729 mmHg 63%
    21:00 +26°C° 0 mm 0 mps 730 mmHg 66%
    22:00 +26°C° 0 mm 0 mps 730 mmHg 69%
    23:00 +25°C° 0 mm 0 mps 729 mmHg 71%

    Day after tomorrow, 22 September, Friday

    Time Temperature Precipitation Wind Pressure Humidity
    00:00 +25°C° 0 mm 0 mps 729 mmHg 73%
    01:00 +24°C° 0 mm 0 mps 729 mmHg 76%
    02:00 +24°C° 1.2 mm 0 mps 729 mmHg 82%
    03:00 +23°C° 1.2 mm 0 mps 729 mmHg 87%
    04:00 +22°C° 1.2 mm 0 mps 729 mmHg 93%
    05:00 +22°C° 1.8 mm 0 mps 730 mmHg 94%
    06:00 +23°C° 1.8 mm 0 mps 731 mmHg 95%
    07:00 +23°C° 1.8 mm 0 mps 732 mmHg 95%
    08:00 +26°C° 3.3 mm 1 mps 732 mmHg 94%
    09:00 +26°C° 3.3 mm 1 mps 733 mmHg 93%
    10:00 +27°C° 3.3 mm 1 mps 733 mmHg 92%
    11:00 +28°C° 1 mm 2 mps 732 mmHg 87%
    12:00 +28°C° 1 mm 2 mps 731 mmHg 82%
    13:00 +29°C° 1 mm 2 mps 731 mmHg 77%
    14:00 +29°C° 0.1 mm 2 mps 730 mmHg 74%
    15:00 +29°C° 0.1 mm 2 mps 730 mmHg 72%
    16:00 +30°C° 0.1 mm 2 mps 729 mmHg 70%
    17:00 +28°C° 0 mm 1 mps 730 mmHg 77%
    18:00 +27°C° 0 mm 1 mps 730 mmHg 84%
    19:00 +25°C° 0 mm 1 mps 731 mmHg 90%
    20:00 +25°C° 0 mm 1 mps 731 mmHg 92%
    21:00 +25°C° 0 mm 1 mps 731 mmHg 93%
    22:00 +25°C° 0 mm 1 mps 731 mmHg 94%
    23:00 +24°C° 0 mm 1 mps 731 mmHg 95%

    23 September, Saturday

    Time Temperature Precipitation Wind Pressure Humidity
    00:00 +24°C° 0 mm 1 mps 730 mmHg 95%
    01:00 +24°C° 0 mm 1 mps 730 mmHg 95%
    02:00 +24°C° 0 mm 1 mps 730 mmHg 96%
    03:00 +24°C° 0 mm 1 mps 731 mmHg 97%
    04:00 +23°C° 0 mm 1 mps 731 mmHg 98%
    05:00 +24°C° 0 mm 1 mps 732 mmHg 94%
    06:00 +25°C° 0 mm 1 mps 733 mmHg 90%
    07:00 +26°C° 0 mm 1 mps 733 mmHg 86%
    08:00 +26°C° 0.9 mm 1 mps 734 mmHg 86%
    09:00 +27°C° 0.9 mm 1 mps 734 mmHg 86%
    10:00 +27°C° 0.9 mm 1 mps 734 mmHg 86%
    11:00 +28°C° 1.5 mm 1 mps 733 mmHg 82%
    12:00 +29°C° 1.5 mm 1 mps 732 mmHg 78%
    13:00 +28°C° 1.5 mm 0 mps 731 mmHg 74%
    14:00 +30°C° 0.3 mm 1 mps 731 mmHg 70%
    15:00 +31°C° 0.3 mm 1 mps 730 mmHg 66%
    16:00 +31°C° 0.3 mm 1 mps 730 mmHg 61%
    17:00 +29°C° 0 mm 1 mps 730 mmHg 70%
    18:00 +27°C° 0 mm 1 mps 731 mmHg 80%
    19:00 +24°C° 0 mm 0 mps 731 mmHg 89%
    20:00 +23°C° 0 mm 0 mps 731 mmHg 91%
    21:00 +23°C° 0 mm 0 mps 732 mmHg 93%
    22:00 +22°C° 0 mm 0 mps 732 mmHg 95%
    23:00 +22°C° 0 mm 0 mps 732 mmHg 96%

    24 September, Sunday

    Time Temperature Precipitation Wind Pressure Humidity
    00:00 +24°C° 0 mm 1 mps 732 mmHg 96%
    01:00 +24°C° 0 mm 1 mps 731 mmHg 97%
    02:00 +23°C° 0 mm 1 mps 731 mmHg 97%
    03:00 +23°C° 0 mm 1 mps 731 mmHg 97%
    04:00 +21°C° 0 mm 0 mps 731 mmHg 97%
    05:00 +24°C° 0 mm 1 mps 732 mmHg 93%
    06:00 +25°C° 0 mm 1 mps 732 mmHg 89%
    07:00 +26°C° 0 mm 1 mps 733 mmHg 85%
    08:00 +28°C° 0.2 mm 1 mps 733 mmHg 78%
    09:00 +29°C° 0.2 mm 2 mps 733 mmHg 71%
    10:00 +31°C° 0.2 mm 2 mps 733 mmHg 64%
    11:00 +32°C° 0.2 mm 2 mps 732 mmHg 59%
    12:00 +35°C° 0.2 mm 2 mps 731 mmHg 54%
    13:00 +36°C° 0.2 mm 2 mps 730 mmHg 48%
    14:00 +34°C° 0 mm 1 mps 730 mmHg 49%
    15:00 +34°C° 0 mm 1 mps 729 mmHg 50%
    16:00 +33°C° 0 mm 1 mps 729 mmHg 52%
    17:00 +31°C° 0.3 mm 1 mps 729 mmHg 63%
    18:00 +29°C° 0.3 mm 1 mps 730 mmHg 74%
    19:00 +26°C° 0.3 mm 1 mps 730 mmHg 85%
    20:00 +26°C° 0.7 mm 1 mps 730 mmHg 88%
    21:00 +25°C° 0.7 mm 1 mps 731 mmHg 91%
    22:00 +24°C° 0.7 mm 1 mps 731 mmHg 94%
    23:00 +24°C° 0.2 mm 1 mps 731 mmHg 95%

    25 September, Monday

    Time Temperature Precipitation Wind Pressure Humidity
    00:00 +24°C° 0.2 mm 1 mps 730 mmHg 95%
    01:00 +24°C° 0.2 mm 1 mps 730 mmHg 96%
    02:00 +24°C° 0.2 mm 1 mps 730 mmHg 96%
    03:00 +23°C° 0.2 mm 1 mps 730 mmHg 97%
    04:00 +23°C° 0.2 mm 1 mps 730 mmHg 97%
    05:00 +24°C° 0 mm 1 mps 731 mmHg 95%
    06:00 +25°C° 0 mm 1 mps 731 mmHg 92%
    07:00 +25°C° 0 mm 1 mps 732 mmHg 90%
    08:00 +28°C° 0.2 mm 1 mps 732 mmHg 79%
    09:00 +30°C° 0.2 mm 1 mps 732 mmHg 69%
    10:00 +32°C° 0.2 mm 2 mps 732 mmHg 58%
    11:00 +32°C° 0.8 mm 2 mps 731 mmHg 61%
    12:00 +32°C° 0.8 mm 1 mps 730 mmHg 63%
    13:00 +32°C° 0.8 mm 1 mps 729 mmHg 66%
    14:00 +32°C° 0.6 mm 1 mps 729 mmHg 66%
    15:00 +32°C° 0.6 mm 1 mps 729 mmHg 67%
    16:00 +31°C° 0.6 mm 1 mps 728 mmHg 68%
    17:00 +30°C° 0 mm 1 mps 729 mmHg 73%
    18:00 +28°C° 0 mm 1 mps 729 mmHg 79%
    19:00 +25°C° 0 mm 0 mps 729 mmHg 85%
    20:00 +24°C° 0.1 mm 0 mps 729 mmHg 86%
    21:00 +24°C° 0.1 mm 0 mps 730 mmHg 87%
    22:00 +24°C° 0.1 mm 0 mps 730 mmHg 89%
    23:00 +23°C° 0.5 mm 0 mps 730 mmHg 91%
    Show more